Louisville Bowman, KY

11:14 PM EDT on August 25, 2019 (GMT -0400)
Bowman

Weather History for KLOU - May, 2019

Change the Weather History Date:

Tuesday, May 14, 2019

  Actual Average Record
Temperature  
Mean Temperature 58 °F 66 °F  
Max Temperature 71 °F 76 °F 91 °F (1998)
Min Temperature 44 °F 56 °F 42 °F (1971)
Degree Days  
Heating Degree Days 7 3  
Month to date heating degree days 42 49  
Since 1 July heating degree days 4096 4240  
Cooling Degree Days 0 3  
Month to date cooling degree days 30 31  
Year to date cooling degree days 47 65  
Growing Degree Days 6 (Base 50)    
Moisture  
Dew Point 43 °F    
Average Humidity 62    
Maximum Humidity 92    
Minimum Humidity 31    
Precipitation  
Precipitation 0.00 in 0.17 in 1.51 in (1967)
Month to date precipitation 2.15 2.49  
Year to date precipitation 25.56 17.29  
Sea Level Pressure  
Sea Level Pressure 30.04 in    
Wind  
Wind Speed 1 mph (North)    
Max Wind Speed 10 mph    
Max Gust Speed 15 mph    
Visibility 8 miles    
Events Fog    
T = Trace of Precipitation, MM = Missing Value Source: NWS Daily Summary

Daily Weather History Graph

Daily Weather History Graph

Search for Another Location

Airport or City:

Astronomy

May. 14, 2019 Rise Set
Actual Time 6:32 AM EDT 8:45 PM EDT
Civil Twilight 6:03 AM EDT 9:15 PM EDT
Nautical Twilight 5:27 AM EDT 9:51 PM EDT
Astronomical Twilight 4:47 AM EDT 10:31 PM EDT
Moon 4:11 PM EDT (5/14) 4:19 AM EDT (5/14)
Length of Visible Light 15h 12m
Length of Day
14h 12m
Waxing Gibbous, 79% of the Moon is Illuminated
May 14
Waxing Gibbous
May 18
Full
May 26
Last Quarter
Jun 3
New
Jun 10
First Quarter

Hourly Weather History & Observations

Time (EDT) Temp. Dew Point Humidity Pressure Visibility Wind Dir Wind Speed Gust Speed Precip Events Conditions
12:53 AM 52.0 °F 45.0 °F 77% 30.02 in 10.0 mi Calm Calm - N/A   Mostly Cloudy
1:53 AM 48.9 °F 44.1 °F 83% 30.01 in 10.0 mi Calm Calm - N/A   Clear
2:53 AM 46.0 °F 43.0 °F 89% 30.02 in 7.0 mi Calm Calm - N/A   Clear
3:25 AM 46.0 °F 43.0 °F 89% 30.01 in 1.8 mi Calm Calm - N/A   Clear
3:53 AM 46.0 °F 42.1 °F 86% 30.02 in 0.5 mi Calm Calm - N/A Fog Fog
4:04 AM 46.0 °F 43.0 °F 89% 30.01 in 2.0 mi Calm Calm - N/A   Clear
4:12 AM 46.0 °F 42.1 °F 86% 30.01 in 4.0 mi Calm Calm - N/A   Clear
4:53 AM 45.0 °F 41.0 °F 86% 30.02 in 9.0 mi Calm Calm - N/A   Clear
5:53 AM 45.0 °F 42.1 °F 90% 30.04 in 7.0 mi Calm Calm - N/A   Clear
6:53 AM 44.1 °F 42.1 °F 93% 30.04 in 5.0 mi Calm Calm - N/A   Clear
7:53 AM 48.9 °F 45.0 °F 86% 30.07 in 9.0 mi Calm Calm - N/A   Clear
8:53 AM 55.0 °F 46.9 °F 74% 30.09 in 10.0 mi Calm Calm - N/A   Clear
9:53 AM 59.0 °F 46.0 °F 62% 30.09 in 10.0 mi Calm Calm - N/A   Clear
10:53 AM 62.1 °F 46.0 °F 56% 30.09 in 10.0 mi Variable 5.8 mph - N/A   Clear
11:53 AM 64.9 °F 43.0 °F 45% 30.09 in 10.0 mi Variable 4.6 mph - N/A   Clear
12:53 PM 66.9 °F 42.1 °F 40% 30.07 in 10.0 mi North - - N/A   Partly Cloudy
1:53 PM 66.0 °F 41.0 °F 40% 30.06 in 10.0 mi Calm Calm - N/A   Mostly Cloudy
2:53 PM 69.1 °F 43.0 °F 39% 30.05 in 10.0 mi North 5.8 mph - N/A   Mostly Cloudy
3:53 PM 69.1 °F 39.9 °F 35% 30.03 in 10.0 mi Calm Calm - N/A   Mostly Cloudy
4:53 PM 69.1 °F 39.0 °F 33% 30.01 in 10.0 mi North 5.8 mph - N/A   Mostly Cloudy
5:53 PM 69.1 °F 39.9 °F 35% 30.00 in 10.0 mi NNE 4.6 mph - N/A   Mostly Cloudy
6:53 PM 69.1 °F 37.9 °F 32% 30.00 in 10.0 mi Calm Calm - N/A   Mostly Cloudy
7:53 PM 68.0 °F 41.0 °F 37% 30.00 in 10.0 mi Calm Calm - N/A   Partly Cloudy
8:53 PM 62.1 °F 43.0 °F 50% 30.01 in 10.0 mi Calm Calm - N/A   Clear
9:53 PM 57.0 °F 45.0 °F 64% 30.02 in 10.0 mi Calm Calm - N/A   Clear
10:53 PM 55.9 °F 46.9 °F 72% 30.04 in 10.0 mi Calm Calm - N/A   Scattered Clouds
11:53 PM 57.0 °F 46.0 °F 67% 30.04 in 10.0 mi Calm Calm - N/A   Overcast